Flag for U.S.A. Weather past 2 weeks in Vincennes, Indiana, U.S.A.

Now
21 °F

Ice fog.


Feels Like: 21 °F
Forecast: 18 / 33 °F
Wind: No wind

Location: Lawrenceville-Vincennes International Airport

Current Time: Mar 2, 2015 at 10:40:23 AM

Latest Report: Mar 2, 2015 at 9:53 AM


Visibility: 3 mi

Pressure: 30.60 "Hg

Humidity: 92%

Dew point: 19 °F

Location of VincennesLocation

Historic Weather in Vincennes — Graph

°F

Vincennes temperature yesterday

Maximum temperature yesterday: 34 °F (at 12:53 PM)
Minimum temperature yesterday: 26 °F (at 11:53 PM)
Average temperature yesterday: 31 °F

Past Weeks' High & Low Weather Summary

 TemperatureHumidityPressure
High34 °F (Feb 21, 1:53 PM)100% (Feb 21, 8:53 AM)30.76 "Hg (Feb 21, 8:53 AM)
Low-12 °F (Feb 20, 4:53 AM)43% (Feb 15, 1:53 PM)29.89 "Hg (Feb 25, 7:53 PM)
Average17 °F74%30.30 "Hg
* Reported Feb 15 8:53 AM — Mar 2 8:53 AM, Vincennes, Weather by CustomWeather, © 2015

Note: Actual official high and low records may vary slightly from our data, if they occured in-between our weather recording intervals... More about our weather records

Advertising

Vincennes weather history for previous 24 hours

 ConditionsComfort  
Time TempWeatherWind HumidityBarometerVisibility
8:53 AM
Mon, Mar 2
16 °FIce fog.No wind92%30.58 "Hg1 mi
7:53 AM13 °FIce fog.5 mph84%30.56 "Hg0 mi
7:04 AM14 °FIce fog.3 mph87%30.54 "Hg0 mi
5:53 AM15 °FIce fog.3 mph83%30.54 "Hg4 mi
4:53 AM14 °FIce fog.3 mph92%30.53 "Hg2 mi
3:53 AM17 °FIce fog.No wind88%30.52 "Hg2 mi
2:53 AM19 °FIce fog.5 mph85%30.51 "Hg6 mi
1:53 AM20 °FClear.7 mph85%30.49 "Hg7 mi
12:53 AM22 °FClear.5 mph89%30.49 "Hg7 mi
11:53 PM
Sun, Mar 1
26 °FPassing clouds.7 mph81%30.47 "Hg7 mi
10:53 PM28 °FOvercast.12 mph81%30.45 "Hg7 mi
9:53 PM29 °FClear.12 mph82%30.42 "Hg7 mi
8:53 PM31 °FPassing clouds.9 mph82%30.39 "Hg6 mi
7:53 PM32 °FIce fog.10 mph85%30.37 "Hg6 mi
6:53 PM32 °FIce fog.9 mph88%30.36 "Hg4 mi
5:53 PM33 °FFog.8 mph85%30.34 "Hg4 mi
4:53 PM33 °FLight rain. Fog.6 mph88%30.33 "Hg3 mi
3:53 PM33 °FFog.9 mph92%30.35 "Hg2 mi
2:53 PM33 °FFog.3 mph96%30.33 "Hg1 mi
1:53 PM33 °FFog.No wind92%30.35 "Hg1 mi
1:04 PM33 °FFog.No wind96%30.35 "Hg1 mi
12:53 PM34 °FFog.No wind92%30.37 "Hg1 mi
11:53 AM33 °FFog.No wind88%30.39 "Hg1 mi
10:53 AM32 °FIce fog.6 mph92%30.39 "Hg1 mi
Weather by CustomWeather, © 2015

See weather overviewHow to use our weather pages